TimeEST,TemperatureF,Dew PointF,Humidity,Sea Level PressureIn,VisibilityMPH,Wind Direction,Wind SpeedMPH,Gust SpeedMPH,PrecipitationIn,Events,Conditions,WindDirDegrees,DateUTC
12:53 AM,32.0,27.0,82,30.32,10.0,Calm,Calm,-,N/A,,Clear,0,2013-12-28 05:53:00
1:53 AM,35.1,26.1,70,30.30,10.0,SSW,4.6,-,N/A,,Clear,200,2013-12-28 06:53:00
2:53 AM,34.0,27.0,75,30.30,10.0,SSW,6.9,-,N/A,,Clear,200,2013-12-28 07:53:00
3:53 AM,33.1,26.1,75,30.30,10.0,Calm,Calm,-,N/A,,Clear,0,2013-12-28 08:53:00
4:53 AM,30.9,25.0,79,30.30,10.0,Calm,Calm,-,N/A,,Clear,0,2013-12-28 09:53:00
5:53 AM,28.9,25.0,85,30.31,10.0,Calm,Calm,-,N/A,,Clear,0,2013-12-28 10:53:00
6:53 AM,28.9,26.1,89,30.31,10.0,Calm,Calm,-,N/A,,Clear,0,2013-12-28 11:53:00
7:53 AM,30.9,28.0,89,30.32,10.0,Calm,Calm,-,N/A,,Clear,0,2013-12-28 12:53:00
8:53 AM,30.0,28.9,96,30.32,10.0,SW,3.5,-,N/A,,Clear,220,2013-12-28 13:53:00
9:53 AM,36.0,30.0,79,30.31,10.0,Calm,Calm,-,N/A,,Clear,0,2013-12-28 14:53:00
10:53 AM,43.0,30.0,60,30.29,10.0,South,5.8,-,N/A,,Clear,190,2013-12-28 15:53:00
11:53 AM,48.9,30.9,50,30.28,10.0,South,9.2,-,N/A,,Clear,190,2013-12-28 16:53:00
12:53 PM,51.1,30.9,46,30.22,10.0,SSW,10.4,-,N/A,,Clear,200,2013-12-28 17:53:00
1:53 PM,52.0,30.9,45,30.22,10.0,SSW,11.5,-,N/A,,Clear,210,2013-12-28 18:53:00
2:53 PM,51.1,32.0,48,30.19,10.0,SSW,10.4,-,N/A,,Clear,210,2013-12-28 19:53:00
3:53 PM,48.9,30.9,50,30.18,10.0,South,11.5,-,N/A,,Clear,190,2013-12-28 20:53:00
4:53 PM,46.0,32.0,58,30.18,10.0,SSW,8.1,-,N/A,,Clear,200,2013-12-28 21:53:00
5:53 PM,44.1,32.0,63,30.17,10.0,South,4.6,-,N/A,,Clear,190,2013-12-28 22:53:00
6:53 PM,41.0,30.9,67,30.18,10.0,Calm,Calm,-,N/A,,Clear,0,2013-12-28 23:53:00
7:53 PM,41.0,30.9,67,30.15,10.0,Calm,Calm,-,N/A,,Clear,0,2013-12-29 00:53:00
8:53 PM,39.9,32.0,73,30.13,10.0,South,3.5,-,N/A,,Clear,190,2013-12-29 01:53:00
9:53 PM,39.9,32.0,73,30.09,10.0,Calm,Calm,-,N/A,,Clear,0,2013-12-29 02:53:00
10:53 PM,39.9,30.9,70,30.06,10.0,Calm,Calm,-,N/A,,Clear,0,2013-12-29 03:53:00
11:53 PM,39.9,32.0,73,30.06,10.0,SW,4.6,-,N/A,,Scattered Clouds,220,2013-12-29 04:53:00